Home   Weather   Saarlouis   Past weeks

Flag for Germany Past Weather in Saarlouis, Saarland, Germany — Yesterday and Last 2 Weeks

Now
59 °F

Passing clouds.


Feels Like: 60 °F
Forecast: 55 / 76 °F
Wind: 3 mph from West

Location: Saarbruecken / Ensheim

Current Time: Aug 21, 2017 at 10:35:06 am

Latest Report: Aug 21, 2017 at 9:50 am


Visibility: N/A

Pressure: 30.24 "Hg

Humidity: 72%

Dew Point: 50 °F

Location of SaarlouisLocation

Past Weather in Saarlouis — Graph

°F

Saarlouis Temperature Yesterday

Maximum temperature yesterday: 66 °F (at 3:50 pm)
Minimum temperature yesterday: 50 °F (at 4:20 am)
Average temperature yesterday: 57 °F

High & Low Weather Summary for the Past Weeks

 TemperatureHumidityPressure
High81 °F (Aug 14, 4:50 pm)100% (Aug 8, 9:23 pm)30.27 "Hg (Aug 8, 9:23 pm)
Low50 °F (Aug 7, 4:50 am)34% (Aug 7, 3:20 pm)29.83 "Hg (Aug 8, 4:50 am)
Average62 °F80%30.09 "Hg
* Reported Aug 6 8:20 am — Aug 21 8:50 am, Saarlouis. Weather by CustomWeather, © 2017

Note: Actual official high and low records may vary slightly from our data, if they occured in-between our weather recording intervals... More about our weather records

Advertising

Saarlouis Weather History for the Previous 24 Hours

Scroll right to see more
 ConditionsComfort  
Time TempWeatherWind HumidityBarometerVisibility
8:50 am
Mon, Aug 21
55 °FSunny.1 mph82%30.27 "Hg10 mi
8:20 am55 °FSunny.1 mph82%30.27 "Hg10 mi
7:50 am54 °FSunny.1 mph88%30.24 "Hg10 mi
7:20 am54 °FSunny.1 mph88%30.24 "Hg10 mi
6:50 am54 °FSunny.1 mph82%30.24 "Hg10 mi
6:20 am54 °FClear.1 mph88%30.24 "Hg10 mi
5:50 am54 °FClear.2 mph88%30.24 "Hg10 mi
5:20 am54 °FClear.2 mph88%30.24 "Hg10 mi
4:50 am54 °FClear.1 mph88%30.24 "Hg10 mi
4:20 am54 °FClear.1 mph88%30.27 "Hg10 mi
3:50 am54 °FClear.1 mph88%30.24 "Hg10 mi
3:30 am54 °FClear.2 mph82%30.27 "Hg10 mi
2:50 am54 °FClear.1 mph88%30.24 "HgN/A
2:20 am54 °FClear.1 mph88%30.27 "HgN/A
1:50 am52 °FClear.2 mph94%30.27 "HgN/A
1:20 am54 °FClear.1 mph88%30.27 "HgN/A
12:50 am54 °FClear.1 mph82%30.27 "HgN/A
12:20 am54 °FClear.1 mph88%30.27 "HgN/A
11:50 pm
Sun, Aug 20
54 °FClear.1 mph82%30.27 "HgN/A
11:20 pm54 °FClear.2 mph82%30.27 "HgN/A
10:50 pm54 °FClear.2 mph82%30.27 "Hg10 mi
10:20 pm54 °FClear.No wind82%30.27 "Hg10 mi
9:50 pm55 °FClear.1 mph82%30.27 "Hg10 mi
9:20 pm55 °FClear.1 mph77%30.27 "Hg10 mi
8:50 pm57 °FClear.2 mph67%30.27 "Hg10 mi
8:20 pm61 °FPassing clouds.3 mph63%30.24 "HgN/A
7:50 pm61 °FPassing clouds.6 mph59%30.27 "HgN/A
7:20 pm63 °FSunny.8 mph56%30.27 "Hg10 mi
6:50 pm64 °FPassing clouds.10 mph52%30.27 "HgN/A
6:20 pm64 °FPassing clouds.8 mph49%30.27 "HgN/A
5:50 pm63 °FPassing clouds.10 mph56%30.27 "HgN/A
5:20 pm64 °FSunny.10 mph52%30.27 "Hg10 mi
4:50 pm64 °FPassing clouds.12 mph56%30.27 "HgN/A
4:20 pm66 °FPassing clouds.13 mph52%30.27 "HgN/A
3:50 pm66 °FPassing clouds.12 mph52%30.27 "HgN/A
2:50 pm64 °FScattered clouds.9 mph49%30.27 "HgN/A
2:20 pm64 °FScattered clouds.13 mph49%30.27 "HgN/A
1:50 pm64 °FScattered clouds.13 mph52%30.27 "HgN/A
1:20 pm64 °FScattered clouds.10 mph56%30.27 "HgN/A
12:50 pm63 °FScattered clouds.8 mph59%30.27 "HgN/A
12:20 pm61 °FScattered clouds.12 mph63%30.27 "HgN/A
11:50 am61 °FScattered clouds.12 mph68%30.27 "HgN/A
11:20 am61 °FScattered clouds.12 mph72%30.27 "HgN/A
10:50 am59 °FScattered clouds.12 mph77%30.27 "HgN/A
10:20 am57 °FScattered clouds.8 mph82%30.27 "HgN/A
Weather by CustomWeather, © 2017

See weather overviewHow to use our weather pages